Time,TemperatureF,DewpointF,PressureIn,WindDirection,WindDirectionDegrees,WindSpeedMPH,WindSpeedGustMPH,Humidity,HourlyPrecipIn,Conditions,Clouds,dailyrainin,SolarRadiationWatts/m^2,SoftwareType,DateUTC
2013-05-27 00:01:00,53.1,38.7,30.13,North,32767,0.0,0.0,58,0.00,,,0.00,0,Wunderground v.1.15,2013-05-27 04:01:00,
2013-05-27 00:02:00,53.0,38.6,30.13,North,32767,0.0,0.0,58,0.00,,,0.00,0,Wunderground v.1.15,2013-05-27 04:02:00,
2013-05-27 00:03:00,53.0,38.2,30.13,North,32767,0.0,0.0,57,0.00,,,0.00,0,Wunderground v.1.15,2013-05-27 04:03:00,
2013-05-27 00:04:00,52.9,38.1,30.14,North,32767,0.0,0.0,57,0.00,,,0.00,0,Wunderground v.1.15,2013-05-27 04:04:00,
2013-05-27 00:07:00,52.8,38.4,30.14,North,32767,0.0,0.0,58,0.00,,,0.00,0,Wunderground v.1.15,2013-05-27 04:07:00,
2013-05-27 00:13:00,52.6,38.2,30.13,North,32767,0.0,0.0,58,0.00,,,0.00,0,Wunderground v.1.15,2013-05-27 04:13:00,
2013-05-27 00:19:00,52.4,38.0,30.14,North,32767,0.0,0.0,58,0.00,,,0.00,0,Wunderground v.1.15,2013-05-27 04:19:00,
2013-05-27 00:25:00,52.3,38.0,30.14,North,32767,0.0,0.0,58,0.00,,,0.00,0,Wunderground v.1.15,2013-05-27 04:25:00,
2013-05-27 00:31:00,52.2,38.3,30.14,North,32767,0.0,0.0,59,0.00,,,0.00,0,Wunderground v.1.15,2013-05-27 04:31:00,
2013-05-27 00:36:00,52.0,38.1,30.14,North,32767,0.0,0.0,59,0.00,,,0.00,0,Wunderground v.1.15,2013-05-27 04:36:00,
2013-05-27 00:42:00,51.8,37.9,30.14,North,32767,0.0,0.0,59,0.00,,,0.00,0,Wunderground v.1.15,2013-05-27 04:42:00,
2013-05-27 00:48:00,51.6,37.7,30.14,North,32767,0.0,0.0,59,0.00,,,0.00,0,Wunderground v.1.15,2013-05-27 04:48:00,
2013-05-27 00:54:00,51.3,37.9,30.14,North,32767,0.0,0.0,60,0.00,,,0.00,0,Wunderground v.1.15,2013-05-27 04:54:00,
2013-05-27 01:00:00,51.0,39.2,30.14,North,32767,0.0,0.0,64,0.00,,,0.00,0,Wunderground v.1.15,2013-05-27 05:00:00,
2013-05-27 01:05:00,50.7,38.6,30.13,North,32767,0.0,0.0,63,0.00,,,0.00,0,Wunderground v.1.15,2013-05-27 05:05:00,
2013-05-27 01:11:00,50.3,38.2,30.12,North,32767,0.0,0.0,63,0.00,,,0.00,0,Wunderground v.1.15,2013-05-27 05:11:00,
2013-05-27 01:17:00,49.9,38.2,30.13,North,32767,0.0,0.0,64,0.00,,,0.00,0,Wunderground v.1.15,2013-05-27 05:17:00,
2013-05-27 01:23:00,49.5,38.2,30.12,North,32767,0.0,0.0,65,0.00,,,0.00,0,Wunderground v.1.15,2013-05-27 05:23:00,
2013-05-27 01:29:00,49.1,37.8,30.13,North,32767,0.0,0.0,65,0.00,,,0.00,0,Wunderground v.1.15,2013-05-27 05:29:00,
2013-05-27 01:34:00,49.0,38.1,30.13,North,32767,0.0,0.0,66,0.00,,,0.00,0,Wunderground v.1.15,2013-05-27 05:34:00,
2013-05-27 01:40:00,48.8,37.9,30.12,North,32767,0.0,0.0,66,0.00,,,0.00,0,Wunderground v.1.15,2013-05-27 05:40:00,
2013-05-27 01:46:00,48.6,37.7,30.13,North,32767,0.0,0.0,66,0.00,,,0.00,0,Wunderground v.1.15,2013-05-27 05:46:00,
2013-05-27 01:52:00,48.5,38.0,30.13,North,32767,0.0,0.0,67,0.00,,,0.00,0,Wunderground v.1.15,2013-05-27 05:52:00,
2013-05-27 01:58:00,48.5,37.3,30.12,North,32767,0.0,0.0,65,0.00,,,0.00,0,Wunderground v.1.15,2013-05-27 05:58:00,
2013-05-27 02:03:00,48.4,38.7,30.12,North,32767,0.0,0.0,69,0.00,,,0.00,0,Wunderground v.1.15,2013-05-27 06:03:00,
2013-05-27 02:09:00,48.3,38.6,30.12,North,32767,0.0,0.0,69,0.00,,,0.00,0,Wunderground v.1.15,2013-05-27 06:09:00,
2013-05-27 02:15:00,48.2,38.9,30.12,North,32767,0.0,0.0,70,0.00,,,0.00,0,Wunderground v.1.15,2013-05-27 06:15:00,
2013-05-27 02:21:00,48.1,39.1,30.12,North,32767,0.0,0.0,71,0.00,,,0.00,0,Wunderground v.1.15,2013-05-27 06:21:00,
2013-05-27 02:26:00,47.9,38.6,30.12,North,32767,0.0,0.0,70,0.00,,,0.00,0,Wunderground v.1.15,2013-05-27 06:26:00,
2013-05-27 02:31:00,47.7,38.8,30.12,North,32767,0.0,0.0,71,0.00,,,0.00,0,Wunderground v.1.15,2013-05-27 06:31:00,
2013-05-27 02:37:00,47.5,38.2,30.12,North,32767,0.0,0.0,70,0.00,,,0.00,0,Wunderground v.1.15,2013-05-27 06:37:00,
2013-05-27 02:42:00,47.3,38.0,30.12,North,32767,0.0,0.0,70,0.00,,,0.00,0,Wunderground v.1.15,2013-05-27 06:42:00,
2013-05-27 02:48:00,47.2,38.3,30.12,North,32767,0.0,0.0,71,0.00,,,0.00,0,Wunderground v.1.15,2013-05-27 06:48:00,
2013-05-27 02:54:00,47.1,38.5,30.11,North,32767,0.0,0.0,72,0.00,,,0.00,0,Wunderground v.1.15,2013-05-27 06:54:00,
2013-05-27 03:00:00,47.0,38.4,30.11,North,32767,0.0,0.0,72,0.00,,,0.00,0,Wunderground v.1.15,2013-05-27 07:00:00,
2013-05-27 03:05:00,46.9,38.7,30.11,North,32767,0.0,0.0,73,0.00,,,0.00,0,Wunderground v.1.15,2013-05-27 07:05:00,
2013-05-27 03:11:00,46.7,38.1,30.11,North,32767,0.0,0.0,72,0.00,,,0.00,0,Wunderground v.1.15,2013-05-27 07:11:00,
2013-05-27 03:17:00,46.6,38.8,30.11,North,32767,0.0,0.0,74,0.00,,,0.00,0,Wunderground v.1.15,2013-05-27 07:17:00,
2013-05-27 03:23:00,46.5,38.7,30.11,North,32767,0.0,0.0,74,0.00,,,0.00,0,Wunderground v.1.15,2013-05-27 07:23:00,
2013-05-27 03:29:00,46.4,38.9,30.10,North,32767,0.0,0.0,75,0.00,,,0.00,0,Wunderground v.1.15,2013-05-27 07:29:00,
2013-05-27 03:34:00,46.3,38.8,30.11,North,32767,0.0,0.0,75,0.00,,,0.00,0,Wunderground v.1.15,2013-05-27 07:34:00,
2013-05-27 03:40:00,46.2,38.0,30.10,North,32767,0.0,0.0,73,0.00,,,0.00,0,Wunderground v.1.15,2013-05-27 07:40:00,
2013-05-27 03:46:00,46.1,37.9,30.10,North,32767,0.0,0.0,73,0.00,,,0.00,0,Wunderground v.1.15,2013-05-27 07:46:00,
2013-05-27 03:52:00,46.0,37.8,30.10,North,32767,0.0,0.0,73,0.00,,,0.00,0,Wunderground v.1.15,2013-05-27 07:52:00,
2013-05-27 03:58:00,45.9,38.1,30.10,North,32767,0.0,0.0,74,0.00,,,0.00,0,Wunderground v.1.15,2013-05-27 07:58:00,
2013-05-27 04:03:00,45.8,38.0,30.10,North,32767,0.0,0.0,74,0.00,,,0.00,0,Wunderground v.1.15,2013-05-27 08:03:00,
2013-05-27 04:09:00,45.7,37.9,30.10,North,32767,0.0,0.0,74,0.00,,,0.00,0,Wunderground v.1.15,2013-05-27 08:09:00,
2013-05-27 04:15:00,45.6,37.8,30.10,North,32767,0.0,0.0,74,0.00,,,0.00,0,Wunderground v.1.15,2013-05-27 08:15:00,
2013-05-27 04:21:00,45.4,37.6,30.10,North,32767,0.0,0.0,74,0.00,,,0.00,0,Wunderground v.1.15,2013-05-27 08:21:00,
2013-05-27 04:27:00,45.2,37.4,30.10,North,32767,0.0,0.0,74,0.00,,,0.00,0,Wunderground v.1.15,2013-05-27 08:27:00,
2013-05-27 04:32:00,45.1,37.0,30.10,North,32767,0.0,0.0,73,0.00,,,0.00,0,Wunderground v.1.15,2013-05-27 08:32:00,
2013-05-27 04:38:00,45.0,37.6,30.11,North,32767,0.0,0.0,75,0.00,,,0.00,0,Wunderground v.1.15,2013-05-27 08:38:00,
2013-05-27 04:44:00,44.9,37.5,30.10,North,32767,0.0,0.0,75,0.00,,,0.00,0,Wunderground v.1.15,2013-05-27 08:44:00,
2013-05-27 04:50:00,44.8,38.0,30.11,North,32767,0.0,0.0,77,0.00,,,0.00,0,Wunderground v.1.15,2013-05-27 08:50:00,
2013-05-27 04:56:00,44.7,36.9,30.10,North,32767,0.0,0.0,74,0.00,,,0.00,0,Wunderground v.1.15,2013-05-27 08:56:00,
2013-05-27 05:02:00,44.7,37.3,30.10,North,32767,0.0,0.0,75,0.00,,,0.00,0,Wunderground v.1.15,2013-05-27 09:02:00,
2013-05-27 05:08:00,44.7,37.3,30.10,North,32767,0.0,0.0,75,0.00,,,0.00,0,Wunderground v.1.15,2013-05-27 09:08:00,
2013-05-27 05:14:00,44.7,37.6,30.10,North,32767,0.0,0.0,76,0.00,,,0.00,0,Wunderground v.1.15,2013-05-27 09:14:00,
2013-05-27 05:20:00,44.7,37.6,30.10,North,32767,0.0,0.0,76,0.00,,,0.00,0,Wunderground v.1.15,2013-05-27 09:20:00,
2013-05-27 05:26:00,44.6,37.5,30.09,North,32767,0.0,0.0,76,0.00,,,0.00,0,Wunderground v.1.15,2013-05-27 09:26:00,
2013-05-27 05:32:00,44.5,37.7,30.09,North,32767,0.0,0.0,77,0.00,,,0.00,0,Wunderground v.1.15,2013-05-27 09:32:00,
2013-05-27 05:38:00,44.5,37.4,30.09,North,32767,0.0,0.0,76,0.00,,,0.00,0,Wunderground v.1.15,2013-05-27 09:38:00,
2013-05-27 05:44:00,44.5,37.4,30.10,North,32767,0.0,0.0,76,0.00,,,0.00,0,Wunderground v.1.15,2013-05-27 09:44:00,
2013-05-27 05:50:00,44.5,37.1,30.10,North,32767,0.0,0.0,75,0.00,,,0.00,0,Wunderground v.1.15,2013-05-27 09:50:00,
2013-05-27 05:56:00,44.5,37.4,30.10,North,32767,0.0,0.0,76,0.00,,,0.00,0,Wunderground v.1.15,2013-05-27 09:56:00,
2013-05-27 06:02:00,44.7,37.3,30.10,North,32767,0.0,0.0,75,0.00,,,0.00,0,Wunderground v.1.15,2013-05-27 10:02:00,
2013-05-27 06:08:00,44.8,37.0,30.10,North,32767,0.0,0.0,74,0.00,,,0.00,5,Wunderground v.1.15,2013-05-27 10:08:00,
2013-05-27 06:14:00,45.0,37.2,30.10,North,32767,0.0,0.0,74,0.00,,,0.00,7,Wunderground v.1.15,2013-05-27 10:14:00,
2013-05-27 06:20:00,45.2,38.1,30.10,North,32767,0.0,0.0,76,0.00,,,0.00,11,Wunderground v.1.15,2013-05-27 10:20:00,
2013-05-27 06:26:00,45.3,38.2,30.10,North,32767,0.0,0.0,76,0.00,,,0.00,14,Wunderground v.1.15,2013-05-27 10:26:00,
2013-05-27 06:32:00,45.4,38.3,30.10,North,32767,0.0,0.0,76,0.00,,,0.00,19,Wunderground v.1.15,2013-05-27 10:32:00,
2013-05-27 06:38:00,45.4,37.6,30.10,North,32767,0.0,0.0,74,0.00,,,0.00,23,Wunderground v.1.15,2013-05-27 10:38:00,
2013-05-27 06:44:00,45.5,38.0,30.10,North,32767,0.0,0.0,75,0.00,,,0.00,28,Wunderground v.1.15,2013-05-27 10:44:00,
2013-05-27 06:50:00,45.6,38.8,30.10,North,32767,0.0,0.0,77,0.00,,,0.00,35,Wunderground v.1.15,2013-05-27 10:50:00,
2013-05-27 06:56:00,45.6,38.8,30.10,North,32767,0.0,0.0,77,0.00,,,0.00,40,Wunderground v.1.15,2013-05-27 10:56:00,
2013-05-27 07:02:00,45.7,38.2,30.10,North,32767,0.0,0.0,75,0.00,,,0.00,46,Wunderground v.1.15,2013-05-27 11:02:00,
2013-05-27 07:08:00,45.9,38.4,30.10,North,32767,0.0,0.0,75,0.00,,,0.00,51,Wunderground v.1.15,2013-05-27 11:08:00,
2013-05-27 07:14:00,46.0,38.5,30.11,North,32767,0.0,0.0,75,0.00,,,0.00,56,Wunderground v.1.15,2013-05-27 11:14:00,
2013-05-27 07:20:00,46.2,38.4,30.11,North,32767,0.0,0.0,74,0.00,,,0.00,62,Wunderground v.1.15,2013-05-27 11:20:00,
2013-05-27 07:26:00,46.5,39.0,30.11,North,32767,0.0,0.0,75,0.00,,,0.00,69,Wunderground v.1.15,2013-05-27 11:26:00,
2013-05-27 07:31:00,46.7,38.9,30.11,North,32767,0.0,0.0,74,0.00,,,0.00,76,Wunderground v.1.15,2013-05-27 11:31:00,
2013-05-27 07:37:00,47.1,39.2,30.11,North,32767,0.0,0.0,74,0.00,,,0.00,83,Wunderground v.1.15,2013-05-27 11:37:00,
2013-05-27 07:43:00,47.4,39.2,30.11,North,32767,0.0,0.0,73,0.00,,,0.00,91,Wunderground v.1.15,2013-05-27 11:43:00,
2013-05-27 07:49:00,47.9,39.7,30.10,North,32767,0.0,0.0,73,0.00,,,0.00,102,Wunderground v.1.15,2013-05-27 11:49:00,
2013-05-27 07:55:00,48.3,39.3,30.11,North,32767,0.0,0.0,71,0.00,,,0.00,111,Wunderground v.1.15,2013-05-27 11:55:00,
2013-05-27 08:01:00,48.7,39.4,30.11,North,32767,0.0,0.0,70,0.00,,,0.00,116,Wunderground v.1.15,2013-05-27 12:01:00,
2013-05-27 08:06:00,49.0,39.3,30.11,North,32767,0.0,0.0,69,0.00,,,0.00,120,Wunderground v.1.15,2013-05-27 12:06:00,
2013-05-27 08:12:00,49.4,39.3,30.11,North,32767,0.0,0.0,68,0.00,,,0.00,127,Wunderground v.1.15,2013-05-27 12:12:00,
2013-05-27 08:18:00,49.9,39.0,30.10,North,32767,0.0,0.0,66,0.00,,,0.00,146,Wunderground v.1.15,2013-05-27 12:18:00,
2013-05-27 08:24:00,50.4,39.1,30.10,North,32767,0.0,0.0,65,0.00,,,0.00,174,Wunderground v.1.15,2013-05-27 12:24:00,
2013-05-27 08:30:00,51.2,38.2,30.10,North,32767,0.0,0.0,61,0.00,,,0.00,209,Wunderground v.1.15,2013-05-27 12:30:00,
2013-05-27 08:35:00,51.8,38.8,30.10,North,32767,0.0,0.0,61,0.00,,,0.00,255,Wunderground v.1.15,2013-05-27 12:35:00,
2013-05-27 08:41:00,52.6,38.7,30.10,North,32767,0.0,0.0,59,0.00,,,0.00,295,Wunderground v.1.15,2013-05-27 12:41:00,
2013-05-27 08:47:00,53.5,39.1,30.10,North,32767,0.0,0.0,58,0.00,,,0.00,192,Wunderground v.1.15,2013-05-27 12:47:00,
2013-05-27 08:53:00,54.0,42.5,30.10,North,32767,0.0,0.0,65,0.00,,,0.00,153,Wunderground v.1.15,2013-05-27 12:53:00,
2013-05-27 08:59:00,54.2,40.6,30.10,North,32767,0.0,0.0,60,0.00,,,0.00,137,Wunderground v.1.15,2013-05-27 12:59:00,
2013-05-27 09:04:00,54.3,40.3,30.10,North,32767,0.0,0.0,59,0.00,,,0.00,128,Wunderground v.1.15,2013-05-27 13:04:00,
2013-05-27 09:10:00,54.4,41.2,30.10,North,32767,0.0,0.0,61,0.00,,,0.00,121,Wunderground v.1.15,2013-05-27 13:10:00,
2013-05-27 09:16:00,54.5,40.9,30.10,North,32767,0.0,0.0,60,0.00,,,0.00,114,Wunderground v.1.15,2013-05-27 13:16:00,
2013-05-27 09:22:00,54.5,40.9,30.10,North,32767,0.0,0.0,60,0.00,,,0.00,121,Wunderground v.1.15,2013-05-27 13:22:00,
2013-05-27 09:28:00,54.7,41.9,30.11,North,32767,0.0,0.0,62,0.00,,,0.00,95,Wunderground v.1.15,2013-05-27 13:28:00,
2013-05-27 09:33:00,54.7,41.9,30.10,North,32767,0.0,0.0,62,0.00,,,0.00,90,Wunderground v.1.15,2013-05-27 13:33:00,
2013-05-27 09:39:00,54.8,41.6,30.10,North,32767,0.0,0.0,61,0.00,,,0.00,86,Wunderground v.1.15,2013-05-27 13:39:00,
2013-05-27 09:45:00,54.8,42.0,30.10,North,32767,0.0,0.0,62,0.00,,,0.00,111,Wunderground v.1.15,2013-05-27 13:45:00,
2013-05-27 09:51:00,55.0,42.6,30.10,North,32767,0.0,0.0,63,0.00,,,0.00,134,Wunderground v.1.15,2013-05-27 13:51:00,
2013-05-27 09:57:00,55.2,43.6,30.09,North,32767,0.0,0.0,65,0.00,,,0.00,135,Wunderground v.1.15,2013-05-27 13:57:00,
2013-05-27 10:02:00,55.3,43.3,30.09,North,32767,0.0,0.0,64,0.00,,,0.00,105,Wunderground v.1.15,2013-05-27 14:02:00,
2013-05-27 10:08:00,55.5,43.1,30.09,North,32767,0.0,0.0,63,0.00,,,0.00,148,Wunderground v.1.15,2013-05-27 14:08:00,
2013-05-27 10:14:00,55.7,42.9,30.09,North,32767,0.0,0.0,62,0.00,,,0.00,176,Wunderground v.1.15,2013-05-27 14:14:00,
2013-05-27 10:20:00,55.9,43.5,30.09,North,32767,0.0,0.0,63,0.00,,,0.00,134,Wunderground v.1.15,2013-05-27 14:20:00,
2013-05-27 10:26:00,56.1,44.1,30.09,North,32767,0.0,0.0,64,0.00,,,0.00,127,Wunderground v.1.15,2013-05-27 14:26:00,
2013-05-27 10:32:00,56.3,43.9,30.09,North,32767,0.0,0.0,63,0.00,,,0.00,128,Wunderground v.1.15,2013-05-27 14:32:00,
2013-05-27 10:38:00,56.4,46.0,30.09,North,32767,0.0,0.0,68,0.00,,,0.00,176,Wunderground v.1.15,2013-05-27 14:38:00,
2013-05-27 10:44:00,56.6,45.8,30.09,North,32767,0.0,0.0,67,0.00,,,0.00,185,Wunderground v.1.15,2013-05-27 14:44:00,
2013-05-27 10:50:00,56.9,46.1,30.09,North,32767,0.0,0.0,67,0.00,,,0.00,202,Wunderground v.1.15,2013-05-27 14:50:00,
2013-05-27 10:56:00,57.2,45.9,30.08,North,32767,0.0,0.0,66,0.00,,,0.00,193,Wunderground v.1.15,2013-05-27 14:56:00,
2013-05-27 11:01:00,57.3,46.8,30.08,North,32767,0.0,0.0,68,0.00,,,0.00,202,Wunderground v.1.15,2013-05-27 15:01:00,
2013-05-27 11:07:00,57.5,48.5,30.08,North,32767,0.0,0.0,72,0.00,,,0.00,214,Wunderground v.1.15,2013-05-27 15:07:00,
2013-05-27 11:13:00,57.4,49.2,30.08,North,32767,0.0,0.0,74,0.00,,,0.00,165,Wunderground v.1.15,2013-05-27 15:13:00,
2013-05-27 11:19:00,57.2,48.6,30.08,North,32767,0.0,0.0,73,0.00,,,0.00,132,Wunderground v.1.15,2013-05-27 15:19:00,
2013-05-27 11:25:00,56.8,48.2,30.08,North,32767,0.0,0.0,73,0.00,,,0.00,146,Wunderground v.1.15,2013-05-27 15:25:00,
2013-05-27 11:31:00,56.6,48.8,30.08,North,32767,0.0,0.0,75,0.00,,,0.00,171,Wunderground v.1.15,2013-05-27 15:31:00,
2013-05-27 11:36:00,56.5,47.9,30.07,North,32767,0.0,0.0,73,0.00,,,0.00,206,Wunderground v.1.15,2013-05-27 15:36:00,
2013-05-27 11:42:00,56.6,48.4,30.07,North,32767,0.0,0.0,74,0.00,,,0.00,292,Wunderground v.1.15,2013-05-27 15:42:00,
2013-05-27 11:48:00,56.9,48.0,30.07,North,32767,0.0,0.0,72,0.00,,,0.00,336,Wunderground v.1.15,2013-05-27 15:48:00,
2013-05-27 11:54:00,57.1,44.6,30.07,North,32767,0.0,0.0,63,0.00,,,0.00,244,Wunderground v.1.15,2013-05-27 15:54:00,
2013-05-27 12:00:00,57.1,44.6,30.07,North,32767,0.0,0.0,63,0.00,,,0.00,225,Wunderground v.1.15,2013-05-27 16:00:00,
2013-05-27 12:05:00,57.2,43.9,30.06,North,32767,0.0,0.0,61,0.00,,,0.00,239,Wunderground v.1.15,2013-05-27 16:05:00,
2013-05-27 12:11:00,57.2,44.3,30.06,North,32767,0.0,0.0,62,0.00,,,0.00,213,Wunderground v.1.15,2013-05-27 16:11:00,
2013-05-27 12:17:00,57.4,43.2,30.06,North,32767,0.0,0.0,59,0.00,,,0.00,220,Wunderground v.1.15,2013-05-27 16:17:00,
2013-05-27 12:23:00,57.4,43.2,30.06,North,32767,0.0,0.0,59,0.00,,,0.00,193,Wunderground v.1.15,2013-05-27 16:23:00,
2013-05-27 12:28:00,57.4,44.9,30.05,North,32767,0.0,0.0,63,0.00,,,0.00,202,Wunderground v.1.15,2013-05-27 16:28:00,
2013-05-27 12:34:00,57.3,44.0,30.05,North,32767,0.0,0.0,61,0.00,,,0.00,200,Wunderground v.1.15,2013-05-27 16:34:00,
2013-05-27 12:40:00,57.2,43.9,30.05,North,32767,0.0,0.0,61,0.00,,,0.00,204,Wunderground v.1.15,2013-05-27 16:40:00,
2013-05-27 12:46:00,57.0,46.1,30.04,North,32767,0.0,0.0,67,0.00,,,0.00,162,Wunderground v.1.15,2013-05-27 16:46:00,
2013-05-27 12:51:00,56.6,43.7,30.04,North,32767,0.0,0.0,62,0.00,,,0.00,160,Wunderground v.1.15,2013-05-27 16:51:00,
2013-05-27 12:57:00,56.1,45.3,30.04,North,32767,0.0,0.0,67,0.00,,,0.00,160,Wunderground v.1.15,2013-05-27 16:57:00,
2013-05-27 13:03:00,55.6,45.6,30.05,North,32767,0.0,0.0,69,0.00,,,0.00,167,Wunderground v.1.15,2013-05-27 17:03:00,
2013-05-27 13:09:00,55.1,45.1,30.05,North,32767,0.0,0.0,69,0.00,,,0.00,139,Wunderground v.1.15,2013-05-27 17:09:00,
2013-05-27 13:14:00,54.7,45.1,30.05,North,32767,0.0,0.0,70,0.00,,,0.00,105,Wunderground v.1.15,2013-05-27 17:14:00,
2013-05-27 13:20:00,54.3,45.1,30.05,North,32767,0.0,0.0,71,0.00,,,0.00,114,Wunderground v.1.15,2013-05-27 17:20:00,
2013-05-27 13:26:00,54.0,45.2,30.05,North,32767,0.0,0.0,72,0.00,,,0.00,93,Wunderground v.1.15,2013-05-27 17:26:00,
2013-05-27 13:31:00,53.8,44.6,30.04,North,32767,0.0,0.0,71,0.00,,,0.00,91,Wunderground v.1.15,2013-05-27 17:31:00,
2013-05-27 13:37:00,53.7,45.6,30.04,North,32767,0.0,0.0,74,0.00,,,0.00,88,Wunderground v.1.15,2013-05-27 17:37:00,
2013-05-27 13:43:00,53.7,45.2,30.04,North,32767,0.0,0.0,73,0.00,,,0.00,114,Wunderground v.1.15,2013-05-27 17:43:00,
2013-05-27 13:49:00,53.7,45.2,30.04,North,32767,0.0,0.0,73,0.00,,,0.00,111,Wunderground v.1.15,2013-05-27 17:49:00,
2013-05-27 13:55:00,53.6,45.5,30.04,North,32767,0.0,0.0,74,0.00,,,0.00,88,Wunderground v.1.15,2013-05-27 17:55:00,
2013-05-27 14:01:00,53.4,46.4,30.05,North,32767,0.0,0.0,77,0.00,,,0.00,88,Wunderground v.1.15,2013-05-27 18:01:00,
2013-05-27 14:07:00,53.2,47.8,30.05,North,32767,0.0,0.0,82,0.00,,,0.00,83,Wunderground v.1.15,2013-05-27 18:07:00,
2013-05-27 14:12:00,52.9,47.2,30.05,North,32767,0.0,0.0,81,0.00,,,0.01,86,Wunderground v.1.15,2013-05-27 18:12:00,
2013-05-27 14:18:00,52.5,47.5,30.05,North,32767,0.0,0.0,83,0.00,,,0.01,72,Wunderground v.1.15,2013-05-27 18:18:00,
2013-05-27 14:24:00,52.2,47.5,30.06,North,32767,0.0,0.0,84,0.05,,,0.02,76,Wunderground v.1.15,2013-05-27 18:24:00,
2013-05-27 14:30:00,51.9,47.8,30.06,North,32767,0.0,0.0,86,0.05,,,0.02,88,Wunderground v.1.15,2013-05-27 18:30:00,
2013-05-27 14:35:00,51.9,48.8,30.06,North,32767,0.0,0.0,89,0.04,,,0.02,114,Wunderground v.1.15,2013-05-27 18:35:00,
2013-05-27 14:41:00,51.9,48.8,30.05,North,32767,0.0,0.0,89,0.00,,,0.03,149,Wunderground v.1.15,2013-05-27 18:41:00,
2013-05-27 14:47:00,52.0,48.9,30.05,North,32767,0.0,0.0,89,0.00,,,0.03,111,Wunderground v.1.15,2013-05-27 18:47:00,
2013-05-27 14:53:00,52.0,48.9,30.05,North,32767,0.0,0.0,89,0.00,,,0.03,107,Wunderground v.1.15,2013-05-27 18:53:00,
2013-05-27 14:59:00,52.0,48.9,30.06,North,32767,0.0,0.0,89,0.04,,,0.04,62,Wunderground v.1.15,2013-05-27 18:59:00,
2013-05-27 15:04:00,52.0,49.2,30.06,North,32767,0.0,0.0,90,0.04,,,0.04,65,Wunderground v.1.15,2013-05-27 19:04:00,
2013-05-27 15:10:00,51.9,48.8,30.05,North,32767,0.0,0.0,89,0.04,,,0.05,54,Wunderground v.1.15,2013-05-27 19:10:00,
2013-05-27 15:16:00,51.6,49.1,30.05,North,32767,0.0,0.0,91,0.04,,,0.05,69,Wunderground v.1.15,2013-05-27 19:16:00,
2013-05-27 15:22:00,51.5,49.0,30.05,North,32767,0.0,0.0,91,0.07,,,0.06,84,Wunderground v.1.15,2013-05-27 19:22:00,
2013-05-27 15:28:00,51.3,48.8,30.04,North,32767,0.0,0.0,91,0.05,,,0.06,97,Wunderground v.1.15,2013-05-27 19:28:00,
2013-05-27 15:33:00,51.1,48.6,30.03,North,32767,0.0,0.0,91,0.05,,,0.07,69,Wunderground v.1.15,2013-05-27 19:33:00,
2013-05-27 15:38:00,51.0,48.5,30.03,North,32767,0.0,0.0,91,0.06,,,0.08,69,Wunderground v.1.15,2013-05-27 19:38:00,
2013-05-27 15:44:00,50.7,48.2,30.03,North,32767,0.0,0.0,91,0.06,,,0.08,65,Wunderground v.1.15,2013-05-27 19:44:00,
2013-05-27 15:50:00,50.6,48.1,30.02,North,32767,0.0,0.0,91,0.05,,,0.08,62,Wunderground v.1.15,2013-05-27 19:50:00,
2013-05-27 15:56:00,50.6,48.7,30.02,North,32767,0.0,0.0,93,0.04,,,0.09,74,Wunderground v.1.15,2013-05-27 19:56:00,
2013-05-27 16:02:00,50.6,48.7,30.01,North,32767,0.0,0.0,93,0.04,,,0.09,88,Wunderground v.1.15,2013-05-27 20:02:00,
2013-05-27 16:08:00,50.7,48.7,30.01,North,32767,0.0,0.0,93,0.05,,,0.10,84,Wunderground v.1.15,2013-05-27 20:08:00,
2013-05-27 16:14:00,50.6,48.4,30.00,North,32767,0.0,0.0,92,0.05,,,0.10,72,Wunderground v.1.15,2013-05-27 20:14:00,
2013-05-27 16:20:00,50.5,48.3,30.00,North,32767,0.0,0.0,92,0.04,,,0.11,67,Wunderground v.1.15,2013-05-27 20:20:00,
2013-05-27 16:26:00,50.4,48.5,30.00,North,32767,0.0,0.0,93,0.04,,,0.11,47,Wunderground v.1.15,2013-05-27 20:26:00,
2013-05-27 16:31:00,50.4,48.5,30.00,North,32767,0.0,0.0,93,0.06,,,0.12,54,Wunderground v.1.15,2013-05-27 20:31:00,
2013-05-27 16:37:00,50.3,48.4,29.99,North,32767,0.0,0.0,93,0.06,,,0.12,54,Wunderground v.1.15,2013-05-27 20:37:00,
2013-05-27 16:43:00,50.2,48.3,30.00,North,32767,0.0,0.0,93,0.04,,,0.12,35,Wunderground v.1.15,2013-05-27 20:43:00,
2013-05-27 16:49:00,50.2,48.5,29.99,North,32767,0.0,0.0,94,0.04,,,0.13,53,Wunderground v.1.15,2013-05-27 20:49:00,
2013-05-27 16:55:00,50.1,48.4,29.98,North,32767,0.0,0.0,94,0.06,,,0.14,58,Wunderground v.1.15,2013-05-27 20:55:00,
2013-05-27 17:01:00,50.1,48.4,29.98,North,32767,0.0,0.0,94,0.06,,,0.14,53,Wunderground v.1.15,2013-05-27 21:01:00,
2013-05-27 17:06:00,50.1,48.4,29.98,North,32767,0.0,0.0,94,0.05,,,0.14,33,Wunderground v.1.15,2013-05-27 21:06:00,
2013-05-27 17:12:00,50.0,48.3,29.98,North,32767,0.0,0.0,94,0.05,,,0.15,42,Wunderground v.1.15,2013-05-27 21:12:00,
2013-05-27 17:18:00,50.0,48.3,29.98,North,32767,0.0,0.0,94,0.07,,,0.16,44,Wunderground v.1.15,2013-05-27 21:18:00,
2013-05-27 17:24:00,50.0,48.6,29.98,North,32767,0.0,0.0,95,0.06,,,0.16,40,Wunderground v.1.15,2013-05-27 21:24:00,
2013-05-27 17:29:00,50.0,48.6,29.98,North,32767,0.0,0.0,95,0.04,,,0.17,40,Wunderground v.1.15,2013-05-27 21:29:00,
2013-05-27 17:35:00,50.0,48.6,29.98,North,32767,0.0,0.0,95,0.04,,,0.17,37,Wunderground v.1.15,2013-05-27 21:35:00,
2013-05-27 17:41:00,49.9,48.5,29.98,North,32767,0.0,0.0,95,0.07,,,0.18,35,Wunderground v.1.15,2013-05-27 21:41:00,
2013-05-27 17:47:00,49.9,48.5,29.97,North,32767,0.0,0.0,95,0.06,,,0.18,35,Wunderground v.1.15,2013-05-27 21:47:00,
2013-05-27 17:53:00,50.0,48.6,29.97,North,32767,0.0,0.0,95,0.05,,,0.19,44,Wunderground v.1.15,2013-05-27 21:53:00,
2013-05-27 17:59:00,50.0,48.6,29.97,North,32767,0.0,0.0,95,0.09,,,0.20,54,Wunderground v.1.15,2013-05-27 21:59:00,
2013-05-27 18:05:00,49.9,48.5,29.97,North,32767,0.0,0.0,95,0.06,,,0.20,33,Wunderground v.1.15,2013-05-27 22:05:00,
2013-05-27 18:10:00,50.0,48.6,29.97,North,32767,0.0,0.0,95,0.06,,,0.21,39,Wunderground v.1.15,2013-05-27 22:10:00,
2013-05-27 18:16:00,49.9,48.5,29.96,North,32767,0.0,0.0,95,0.08,,,0.22,35,Wunderground v.1.15,2013-05-27 22:16:00,
2013-05-27 18:22:00,49.9,48.5,29.95,North,32767,0.0,0.0,95,0.06,,,0.22,23,Wunderground v.1.15,2013-05-27 22:22:00,
2013-05-27 18:28:00,49.8,48.4,29.95,North,32767,0.0,0.0,95,0.06,,,0.23,21,Wunderground v.1.15,2013-05-27 22:28:00,
2013-05-27 18:33:00,49.8,48.4,29.95,North,32767,0.0,0.0,95,0.09,,,0.24,16,Wunderground v.1.15,2013-05-27 22:33:00,
2013-05-27 18:39:00,49.6,48.2,29.95,North,32767,0.0,0.0,95,0.06,,,0.25,12,Wunderground v.1.15,2013-05-27 22:39:00,
2013-05-27 18:45:00,49.6,48.2,29.95,North,32767,0.0,0.0,95,0.09,,,0.26,14,Wunderground v.1.15,2013-05-27 22:45:00,
2013-05-27 18:51:00,49.6,48.2,29.95,North,32767,0.0,0.0,95,0.09,,,0.26,12,Wunderground v.1.15,2013-05-27 22:51:00,
2013-05-27 18:57:00,49.6,48.2,29.94,North,32767,0.0,0.0,95,0.06,,,0.27,21,Wunderground v.1.15,2013-05-27 22:57:00,
2013-05-27 19:03:00,49.5,48.1,29.94,North,32767,0.0,0.0,95,0.08,,,0.28,25,Wunderground v.1.15,2013-05-27 23:03:00,
2013-05-27 19:09:00,49.6,48.5,29.94,North,32767,0.0,0.0,96,0.08,,,0.28,26,Wunderground v.1.15,2013-05-27 23:09:00,
2013-05-27 19:15:00,49.6,48.5,29.95,North,32767,0.0,0.0,96,0.06,,,0.29,11,Wunderground v.1.15,2013-05-27 23:15:00,
2013-05-27 19:20:00,49.5,48.4,29.94,North,32767,0.0,0.0,96,0.08,,,0.30,14,Wunderground v.1.15,2013-05-27 23:20:00,
2013-05-27 19:26:00,49.5,48.4,29.93,North,32767,0.0,0.0,96,0.08,,,0.30,12,Wunderground v.1.15,2013-05-27 23:26:00,
2013-05-27 19:31:00,49.5,48.4,29.93,North,32767,0.0,0.0,96,0.06,,,0.31,16,Wunderground v.1.15,2013-05-27 23:31:00,
2013-05-27 19:37:00,49.6,48.5,29.92,North,32767,0.0,0.0,96,0.09,,,0.32,18,Wunderground v.1.15,2013-05-27 23:37:00,
2013-05-27 19:43:00,49.6,48.5,29.92,North,32767,0.0,0.0,96,0.09,,,0.32,7,Wunderground v.1.15,2013-05-27 23:43:00,
2013-05-27 19:49:00,49.6,48.5,29.93,North,32767,0.0,0.0,96,0.06,,,0.33,7,Wunderground v.1.15,2013-05-27 23:49:00,
2013-05-27 19:55:00,49.6,48.5,29.93,North,32767,0.0,0.0,96,0.08,,,0.34,5,Wunderground v.1.15,2013-05-27 23:55:00,
2013-05-27 20:01:00,49.7,48.6,29.92,North,32767,0.0,0.0,96,0.08,,,0.34,0,Wunderground v.1.15,2013-05-28 00:01:00,
2013-05-27 20:07:00,49.7,48.6,29.93,North,32767,0.0,0.0,96,0.06,,,0.35,0,Wunderground v.1.15,2013-05-28 00:07:00,
2013-05-27 20:13:00,49.7,48.6,29.92,North,32767,0.0,0.0,96,0.08,,,0.36,0,Wunderground v.1.15,2013-05-28 00:13:00,
2013-05-27 20:18:00,49.8,48.7,29.92,North,32767,0.0,0.0,96,0.08,,,0.36,0,Wunderground v.1.15,2013-05-28 00:18:00,
2013-05-27 20:24:00,49.8,48.7,29.92,North,32767,0.0,0.0,96,0.05,,,0.36,0,Wunderground v.1.15,2013-05-28 00:24:00,
2013-05-27 20:30:00,49.9,48.8,29.92,North,32767,0.0,0.0,96,0.05,,,0.37,0,Wunderground v.1.15,2013-05-28 00:30:00,
2013-05-27 20:35:00,49.9,48.8,29.92,North,32767,0.0,0.0,96,0.06,,,0.38,0,Wunderground v.1.15,2013-05-28 00:35:00,
2013-05-27 20:41:00,50.0,48.9,29.91,North,32767,0.0,0.0,96,0.06,,,0.38,0,Wunderground v.1.15,2013-05-28 00:41:00,
2013-05-27 20:47:00,50.0,50.0,29.91,North,32767,0.0,0.0,100,0.05,,,0.39,0,Wunderground v.1.15,2013-05-28 00:47:00,
2013-05-27 20:53:00,50.1,49.3,29.91,North,32767,0.0,0.0,97,0.08,,,0.40,0,Wunderground v.1.15,2013-05-28 00:53:00,
2013-05-27 20:59:00,50.1,49.3,29.90,North,32767,0.0,0.0,97,0.08,,,0.40,0,Wunderground v.1.15,2013-05-28 00:59:00,
2013-05-27 21:04:00,50.1,49.3,29.90,North,32767,0.0,0.0,97,0.06,,,0.41,0,Wunderground v.1.15,2013-05-28 01:04:00,
2013-05-27 21:09:00,50.1,49.3,29.90,North,32767,0.0,0.0,97,0.06,,,0.41,0,Wunderground v.1.15,2013-05-28 01:09:00,
2013-05-27 21:14:00,50.2,49.4,29.90,North,32767,0.0,0.0,97,0.08,,,0.42,0,Wunderground v.1.15,2013-05-28 01:14:00,
2013-05-27 21:20:00,50.3,49.5,29.91,North,32767,0.0,0.0,97,0.06,,,0.42,0,Wunderground v.1.15,2013-05-28 01:20:00,
2013-05-27 21:26:00,50.3,49.5,29.90,North,32767,0.0,0.0,97,0.05,,,0.43,0,Wunderground v.1.15,2013-05-28 01:26:00,
2013-05-27 21:31:00,50.4,49.6,29.90,North,32767,0.0,0.0,97,0.09,,,0.44,0,Wunderground v.1.15,2013-05-28 01:31:00,
2013-05-27 21:37:00,50.4,49.6,29.90,North,32767,0.0,0.0,97,0.06,,,0.44,0,Wunderground v.1.15,2013-05-28 01:37:00,
2013-05-27 21:43:00,50.5,49.7,29.90,North,32767,0.0,0.0,97,0.06,,,0.45,0,Wunderground v.1.15,2013-05-28 01:43:00,
2013-05-27 21:49:00,50.5,49.7,29.90,North,32767,0.0,0.0,97,0.09,,,0.46,0,Wunderground v.1.15,2013-05-28 01:49:00,
2013-05-27 21:55:00,50.5,49.7,29.90,North,32767,0.0,0.0,97,0.06,,,0.46,0,Wunderground v.1.15,2013-05-28 01:55:00,
2013-05-27 22:00:00,50.6,49.8,29.90,North,32767,0.0,0.0,97,0.05,,,0.47,0,Wunderground v.1.15,2013-05-28 02:00:00,
2013-05-27 22:06:00,50.6,49.8,29.90,North,32767,0.0,0.0,97,0.09,,,0.48,0,Wunderground v.1.15,2013-05-28 02:06:00,
2013-05-27 22:17:00,50.7,49.9,29.91,North,32767,0.0,0.0,97,0.06,,,0.49,0,Wunderground v.1.15,2013-05-28 02:17:00,
2013-05-27 22:23:00,50.7,49.9,29.91,North,32767,0.0,0.0,97,0.10,,,0.50,0,Wunderground v.1.15,2013-05-28 02:23:00,
2013-05-27 22:28:00,50.7,49.9,29.91,North,32767,0.0,0.0,97,0.08,,,0.50,0,Wunderground v.1.15,2013-05-28 02:28:00,
2013-05-27 22:34:00,50.8,50.0,29.90,North,32767,0.0,0.0,97,0.07,,,0.51,0,Wunderground v.1.15,2013-05-28 02:34:00,
2013-05-27 22:40:00,50.8,50.0,29.91,North,32767,0.0,0.0,97,0.10,,,0.52,0,Wunderground v.1.15,2013-05-28 02:40:00,
2013-05-27 22:46:00,50.8,50.0,29.91,North,32767,0.0,0.0,97,0.08,,,0.53,0,Wunderground v.1.15,2013-05-28 02:46:00,
2013-05-27 22:52:00,50.9,50.1,29.90,North,32767,0.0,0.0,97,0.12,,,0.54,0,Wunderground v.1.15,2013-05-28 02:52:00,
2013-05-27 22:58:00,50.9,50.1,29.90,North,32767,0.0,0.0,97,0.07,,,0.55,0,Wunderground v.1.15,2013-05-28 02:58:00,
2013-05-27 23:04:00,50.9,50.1,29.90,North,32767,0.0,0.0,97,0.11,,,0.56,0,Wunderground v.1.15,2013-05-28 03:04:00,
2013-05-27 23:10:00,51.0,50.2,29.90,North,32767,0.0,0.0,97,0.07,,,0.56,0,Wunderground v.1.15,2013-05-28 03:10:00,
2013-05-27 23:16:00,51.0,50.2,29.90,North,32767,0.0,0.0,97,0.07,,,0.57,0,Wunderground v.1.15,2013-05-28 03:16:00,
2013-05-27 23:21:00,51.0,50.2,29.89,North,32767,0.0,0.0,97,0.10,,,0.58,0,Wunderground v.1.15,2013-05-28 03:21:00,
2013-05-27 23:27:00,51.0,50.2,29.89,North,32767,0.0,0.0,97,0.06,,,0.59,0,Wunderground v.1.15,2013-05-28 03:27:00,
2013-05-27 23:33:00,51.0,50.2,29.89,North,32767,0.0,0.0,97,0.06,,,0.59,0,Wunderground v.1.15,2013-05-28 03:33:00,
2013-05-27 23:39:00,51.0,50.2,29.89,North,32767,0.0,0.0,97,0.08,,,0.60,0,Wunderground v.1.15,2013-05-28 03:39:00,
2013-05-27 23:45:00,51.0,50.2,29.89,North,32767,0.0,0.0,97,0.05,,,0.60,0,Wunderground v.1.15,2013-05-28 03:45:00,
2013-05-27 23:50:00,51.0,50.2,29.88,North,32767,0.0,0.0,97,0.05,,,0.61,0,Wunderground v.1.15,2013-05-28 03:50:00,
2013-05-27 23:56:00,51.0,50.2,29.88,North,32767,0.0,0.0,97,0.07,,,0.62,0,Wunderground v.1.15,2013-05-28 03:56:00,